Wahpeton, MN

7:45 PM CDT on July 20, 2017 (GMT -0500)
Stern

Weather History for KBWP - May, 2014

Change the Weather History Date:

Sunday, May 25, 2014

  Actual Average (KFFM) Record (KFFM)
Temperature  
Mean Temperature 68 °F -  
Max Temperature 82 °F 68 °F 89 °F (1959)
Min Temperature 55 °F 49 °F 34 °F (1983)
Cooling Degree Days 4    
Growing Degree Days 18 (Base 50)    
Moisture  
Dew Point 50 °F    
Average Humidity 53    
Maximum Humidity 83    
Minimum Humidity 30    
Precipitation  
Precipitation 0.00 in - - ()
Sea Level Pressure  
Sea Level Pressure 29.89 in    
Wind  
Wind Speed 10 mph (South)    
Max Wind Speed 18 mph    
Max Gust Speed 30 mph    
Visibility 10 miles    
Events      
Averages and records for this station are not official NWS values.
T = Trace of Precipitation, MM = Missing Value Source: NWS Daily Summary

Daily Weather History Graph

Daily Weather History Graph

Search for Another Location

Airport or City:

Trip Planner

Search our weather history database for the weather conditions in past years. The results will help you decide how hot, cold, wet, or windy it might be!

Date:

Astronomy

May. 25, 2014 Rise Set
Actual Time 5:43 AM CDT 9:04 PM CDT
Civil Twilight 5:06 AM CDT 9:40 PM CDT
Nautical Twilight 4:18 AM CDT 10:29 PM CDT
Astronomical Twilight 3:17 AM CDT 11:30 PM CDT
Moon 4:00 AM CDT (5/25) 5:55 PM CDT (5/25)
Length of Visible Light 16h 34m
Length of Day
15h 20m
Waning Crescent, 10% of the Moon is Illuminated
May 25
Waning Crescent
May 28
New
Jun 5
First Quarter
Jun 12
Full
Jun 19
Last Quarter

Hourly Weather History & Observations

Time (CDT) Temp. Dew Point Humidity Pressure Visibility Wind Dir Wind Speed Gust Speed Precip Events Conditions
12:10 AM 64.4 °F 46.4 °F 52% 29.96 in 10.0 mi SSE 6.9 mph - N/A   Clear
12:30 AM 62.6 °F 46.4 °F 55% 29.96 in 10.0 mi SSE 6.9 mph - N/A   Clear
12:50 AM 62.6 °F 46.4 °F 55% 29.96 in 10.0 mi SSE 8.1 mph - N/A   Clear
1:10 AM 60.8 °F 46.4 °F 59% 29.96 in 10.0 mi SSE 8.1 mph - N/A   Clear
1:30 AM 60.8 °F 44.6 °F 55% 29.96 in 10.0 mi SSE 8.1 mph - N/A   Clear
1:50 AM 60.8 °F 44.6 °F 55% 29.96 in 10.0 mi SSE 9.2 mph - N/A   Clear
2:10 AM 60.8 °F 44.6 °F 55% 29.96 in 10.0 mi SSE 9.2 mph - N/A   Clear
2:30 AM 60.8 °F 44.6 °F 55% 29.96 in 10.0 mi SSE 10.4 mph - N/A   Clear
2:50 AM 60.8 °F 44.6 °F 55% 29.96 in 10.0 mi SSE 10.4 mph - N/A   Clear
3:10 AM 59.0 °F 44.6 °F 59% 29.95 in 10.0 mi SSE 11.5 mph - N/A   Clear
3:30 AM 59.0 °F 42.8 °F 55% 29.95 in 10.0 mi SSE 11.5 mph - N/A   Clear
3:50 AM 59.0 °F 42.8 °F 55% 29.94 in 10.0 mi SSE 9.2 mph - N/A   Clear
4:10 AM 57.2 °F 42.8 °F 59% 29.94 in 10.0 mi SSE 11.5 mph - N/A   Clear
4:30 AM 57.2 °F 42.8 °F 59% 29.94 in 10.0 mi SSE 10.4 mph - N/A   Clear
5:10 AM 55.4 °F 42.8 °F 63% 29.94 in 10.0 mi SSE 10.4 mph - N/A   Clear
5:30 AM 55.4 °F 42.8 °F 63% 29.94 in 10.0 mi SSE 10.4 mph - N/A   Clear
5:50 AM 55.4 °F 42.8 °F 63% 29.94 in 10.0 mi SSE 10.4 mph - N/A   Clear
6:10 AM 55.4 °F 42.8 °F 63% 29.93 in 10.0 mi SSE 9.2 mph - N/A   Clear
6:30 AM 55.4 °F 42.8 °F 63% 29.94 in 10.0 mi SSE 9.2 mph - N/A   Clear
6:50 AM 55.4 °F 42.8 °F 63% 29.94 in 10.0 mi SSE 8.1 mph - N/A   Clear
7:10 AM 59.0 °F 42.8 °F 55% 29.94 in 10.0 mi SSE 9.2 mph - N/A   Clear
7:30 AM 60.8 °F 44.6 °F 55% 29.94 in 10.0 mi SSE 11.5 mph - N/A   Clear
7:50 AM 62.6 °F 46.4 °F 55% 29.94 in 10.0 mi SSE 10.4 mph - N/A   Clear
8:10 AM 64.4 °F 48.2 °F 56% 29.94 in 10.0 mi SSE 8.1 mph - N/A   Clear
8:30 AM 64.4 °F 50.0 °F 59% 29.94 in 10.0 mi South 10.4 mph - N/A   Clear
8:50 AM 68.0 °F 50.0 °F 52% 29.94 in 10.0 mi South 10.4 mph - N/A   Clear
9:30 AM 71.6 °F 53.6 °F 53% 29.94 in 10.0 mi South 11.5 mph 17.3 mph N/A   Clear
9:50 AM 71.6 °F 53.6 °F 53% 29.93 in 10.0 mi South 12.7 mph - N/A   Clear
10:10 AM 73.4 °F 55.4 °F 53% 29.93 in 10.0 mi South 12.7 mph 18.4 mph N/A   Clear
10:30 AM 77.0 °F 53.6 °F 44% 29.92 in 10.0 mi South 15.0 mph - N/A   Clear
10:50 AM 77.0 °F 51.8 °F 41% 29.92 in 10.0 mi South 15.0 mph 19.6 mph N/A   Clear
11:10 AM 77.0 °F 50.0 °F 39% 29.91 in 10.0 mi South 18.4 mph - N/A   Clear
11:50 AM 78.8 °F 46.4 °F 32% 29.90 in 10.0 mi SSE 17.3 mph 20.7 mph N/A   Clear
12:10 PM 78.8 °F 50.0 °F 36% 29.90 in 10.0 mi South 10.4 mph 23.0 mph N/A   Clear
12:30 PM 77.0 °F 50.0 °F 39% 29.89 in 10.0 mi SSW 12.7 mph - N/A   Clear
12:50 PM 78.8 °F 50.0 °F 36% 29.88 in 10.0 mi South 15.0 mph 28.8 mph N/A   Clear
1:10 PM 78.8 °F 50.0 °F 36% 29.88 in 10.0 mi South 18.4 mph 21.9 mph N/A   Clear
1:30 PM 80.6 °F 48.2 °F 32% 29.88 in 10.0 mi SSW 15.0 mph 20.7 mph N/A   Clear
1:50 PM 80.6 °F 50.0 °F 34% 29.87 in 10.0 mi SSW 10.4 mph 21.9 mph N/A   Clear
2:10 PM 80.6 °F 50.0 °F 34% 29.87 in 10.0 mi SSW 15.0 mph 23.0 mph N/A   Clear
2:30 PM 80.6 °F 50.0 °F 34% 29.85 in 10.0 mi South 12.7 mph 21.9 mph N/A   Clear
2:50 PM 80.6 °F 50.0 °F 34% 29.85 in 10.0 mi South 16.1 mph 25.3 mph N/A   Clear
3:10 PM 82.4 °F 50.0 °F 32% 29.84 in 10.0 mi South 17.3 mph 27.6 mph N/A   Clear
3:30 PM 80.6 °F 46.4 °F 30% 29.83 in 10.0 mi South 17.3 mph 25.3 mph N/A   Clear
3:50 PM 80.6 °F 48.2 °F 32% 29.83 in 10.0 mi South 13.8 mph 21.9 mph N/A   Clear
4:10 PM 82.4 °F 50.0 °F 32% 29.82 in 10.0 mi South 13.8 mph 20.7 mph N/A   Clear
4:30 PM 82.4 °F 50.0 °F 32% 29.82 in 10.0 mi South 16.1 mph 21.9 mph N/A   Clear
4:50 PM 82.4 °F 51.8 °F 35% 29.81 in 10.0 mi South 18.4 mph 25.3 mph N/A   Clear
5:10 PM 82.4 °F 50.0 °F 32% 29.82 in 10.0 mi SSW 16.1 mph 24.2 mph N/A   Clear
5:30 PM 82.4 °F 48.2 °F 30% 29.82 in 10.0 mi SSW 15.0 mph 24.2 mph N/A   Clear
5:50 PM 82.4 °F 48.2 °F 30% 29.82 in 10.0 mi SW 13.8 mph 18.4 mph N/A   Clear
6:10 PM 80.6 °F 51.8 °F 37% 29.83 in 10.0 mi SSW 11.5 mph 20.7 mph N/A   Clear
6:30 PM 80.6 °F 51.8 °F 37% 29.83 in 10.0 mi SSW 13.8 mph 20.7 mph N/A   Clear
6:50 PM 78.8 °F 51.8 °F 39% 29.84 in 10.0 mi SSW 11.5 mph - N/A   Scattered Clouds
7:10 PM 69.8 °F 55.4 °F 60% 29.87 in 10.0 mi NNW 17.3 mph 29.9 mph N/A   Overcast
7:30 PM 69.8 °F 55.4 °F 60% 29.87 in 10.0 mi NNW 16.1 mph 21.9 mph N/A   Overcast
7:50 PM 68.0 °F 57.2 °F 68% 29.86 in 10.0 mi North 17.3 mph 23.0 mph N/A   Overcast
8:10 PM 68.0 °F 55.4 °F 64% 29.85 in 10.0 mi NNE 9.2 mph - N/A   Mostly Cloudy
8:30 PM 68.0 °F 55.4 °F 64% 29.85 in 10.0 mi North 3.5 mph - N/A   Scattered Clouds
8:50 PM 68.0 °F 55.4 °F 64% 29.84 in 10.0 mi Calm Calm - N/A   Mostly Cloudy
9:10 PM 68.0 °F 59.0 °F 73% 29.84 in 10.0 mi SW 3.5 mph - N/A   Scattered Clouds
9:30 PM 66.2 °F 59.0 °F 78% 29.84 in 10.0 mi South 6.9 mph - N/A   Clear
9:50 PM 66.2 °F 59.0 °F 78% 29.84 in 10.0 mi SSW 8.1 mph - N/A   Clear
10:10 PM 64.4 °F 59.0 °F 83% 29.84 in 10.0 mi SSW 9.2 mph - N/A   Clear
10:30 PM 64.4 °F 59.0 °F 83% 29.84 in 10.0 mi SSW 5.8 mph - N/A   Clear
10:50 PM 64.4 °F 59.0 °F 83% 29.84 in 10.0 mi SSW 4.6 mph - N/A   Clear
11:10 PM 64.4 °F 59.0 °F 83% 29.84 in 10.0 mi Calm Calm - N/A   Clear
11:30 PM 64.4 °F 59.0 °F 83% 29.85 in 10.0 mi South 5.8 mph - N/A   Clear
11:50 PM 64.4 °F 59.0 °F 83% 29.86 in 10.0 mi Calm Calm - N/A   Clear